Weather Roundup
Issued by NWS

Home | Current Version | Previous Version | Graphics & Text | Print | Product List | Glossary Off
Versions: 1 2 3 4 5 6 7 8 9 10 11 12 13 14 15 16 17 18 19 20 21 22 23 24 25 26 27 28 29 30 31 32 33 34 35 36 37 38 39 40 41 42 43 44 45 46 47 48 49 50

888
NZUS93 KARX 080810
HRRWXR

CURRENT HOURLY OBSERVATIONS ACROSS
MUCH OF THE UPPER MISSISSIPPI VALLEY
NATIONAL WEATHER SERVICE LA CROSSE WI
200 AM CST MON FEB 08 2016


...SOUTHEAST MINNESOTA...


CITY           SKY/WX    TMP DP  RH WIND       PRES   REMARKS
ROCHESTER      LGT SNOW  15  10  80 NW20      29.71R WCI  -2
ROCHESTER/MAYO CLOUDY    16  10  80 W17G28    29.72R WCI   0
WINONA         CLOUDY    21  14  73 NW12      29.73R WCI   9
AUSTIN         CLOUDY    14   9  79 NW21G28   29.74R WCI  -4
ALBERT LEA     CLOUDY    14   9  79 NW18G31   29.75S WCI  -3
DODGE CENTER   LGT SNOW  14  10  85 NW16      29.72R WCI  -2
PRESTON        FLURRIES  15   9  76 NW15      29.70S WCI   0
OWATONNA       LGT SNOW  14   9  79 NW25      29.77R WCI  -5
FARIBAULT      LGT SNOW  14   9  79 NW16G24   29.78S WCI  -2
$$

...ELSEWHERE IN MINNESOTA...


CITY           SKY/WX    TMP DP  RH WIND       PRES   REMARKS
MINNEAPOLIS    LGT SNOW  15   9  76 NW16      29.79R WCI  -1
INTNL FALLS    LGT SNOW   7   2  80 NW16      29.83R WCI -11
DULUTH         LGT SNOW  12   7  80 NW14G23   29.67S BLWGSNOWWCI  -3
RED WING       FLURRIES  18   9  68 NW9G17    29.74S WCI   6
REDWOOD FALLS  LGT SNOW  13   9  84 NW24G37   29.90R FOG     WCI  -7
MANKATO        CLOUDY   N/A N/A N/A NW29G37   29.80S
WORTHINGTON    CLOUDY   N/A N/A N/A N32G43    29.90R VSB 1
FAIRMONT       CLOUDY   N/A N/A N/A NW32G41   29.81S VSB 1/2
$$

...SOUTHWEST WISCONSIN...


CITY           SKY/WX    TMP DP  RH WIND       PRES   REMARKS
LA CROSSE      LGT SNOW  22  16  78 NW17      29.69S WCI   8
PRAIRIE DU CHI LGT SNOW  24  19  83 W18G25    29.70R WCI  10
BOSCOBEL       CLOUDY    28  17  63 W12G18    29.67S WCI  18
LONE ROCK      CLOUDY    30  22  72 W16       29.64R WCI  19
PLATTEVILLE    CLOUDY    29  23  80 W15       29.64F WCI  17
FORT MC COY    LGT SNOW  24  21  91 NW13      29.67R WCI  12
CAMP DOUGLAS   LGT SNOW  25  25 100 W16       29.62R FOG     WCI  12
VIROQUA        CLOUDY    21  19  93 NW13      29.63S WCI   8
WIS DELLS      CLOUDY    29  24  80 NW12G20   29.59S WCI  20
$$

...ELSEWHERE IN WISCONSIN...


CITY           SKY/WX    TMP DP  RH WIND       PRES   REMARKS
MILWAUKEE      PTCLDY    30  26  85 SW8       29.60F WCI  22
MADISON        CLOUDY    33  31  92 VRB5      29.58F WCI  29
GREEN BAY      CLOUDY    34  28  79 SW5       29.55F WCI  30
EAU CLAIRE     FLURRIES  19  11  70 NW13      29.68R WCI   6
BLACK RVR FLS  LGT SNOW  23  19  84 W6        29.65S VSB 1   WCI  15
MEDFORD        LGT SNOW  22  20  92 W9        29.57R WCI  11
WAUSAU         LGT SNOW  28  24  85 NW8       29.55R FOG     WCI  20
WIS RAPIDS     CLOUDY    27  21  78 NW9       29.60S WCI  18
MARSHFIELD     LGT SNOW  24  18  77 NW16      29.57S WCI  11
RICE LAKE      LGT SNOW  18  11  77 NW14G21   29.69S WCI   4
$$

...NORTHEAST IOWA...


CITY           SKY/WX    TMP DP  RH WIND       PRES   REMARKS
WATERLOO       LGT SNOW  19  15  84 NW16G24   29.76S FOG     WCI   4
DUBUQUE        CLOUDY    26  18  71 W18       29.67S WCI  13
DECORAH        LGT SNOW  19  16  86 NW14G22   29.69S WCI   6
MASON CITY     LGT SNOW  15  11  83 NW33G39   29.79S FOG     WCI  -6
CHARLES CITY   FLURRIES  18  14  86 NW16G25   29.75S WCI   3
OELWEIN        LGT SNOW  19  18  93 NW18G25   29.73S WCI   4
$$

...ELSEWHERE IN IOWA...


CITY           SKY/WX    TMP DP  RH WIND       PRES   REMARKS
DES MOINES     FLURRIES  25  16  68 NW23G31   29.87S WCI  10
IOWA CITY      CLOUDY    27  15  61 NW21G37   29.78R WCI  13
FORT DODGE     CLOUDY    19  10  68 NW17G28   29.87S WCI   4
MARSHALLTOWN   CLOUDY    21  14  74 NW26G40   29.81S WCI   4
CEDAR RAPIDS   CLOUDY    24  18  77 NW25G41   29.74S WCI   8
$$

...NORTHERN ILLINOIS...


CITY           SKY/WX    TMP DP  RH WIND       PRES   REMARKS
CHICAGO-OHARE  PTCLDY    31  26  82 SW9       29.64F WCI  23
CHICAGO-MIDWAY CLEAR     33  25  72 SW9       29.65F WCI  25
MOLINE         CLOUDY    32  25  75 NW20G26   29.70S WCI  20
ROCKFORD       FLURRIES  34  29  82 SW12      29.65S WCI  25
PEORIA         CLOUDY    33  28  81 W7        29.72F WCI  27
$$

NOTE: "FAIR" INDICATES FEW OR NO CLOUDS BELOW 12,000 FEET WITH NO
SIGNIFICANT WEATHER AND/OR OBSTRUCTIONS TO VISIBILITY. WIND
SPEEDS ARE IN MILES-PER-HOUR.




USA.gov is the U.S. government's official web portal to all federal, state and local government web resources and services.